Weather History for Shreveport, LA

Change the Weather History Date:

Sunday, March 23, 2014

  Actual Average Record
Temperature  
Mean Temperature 56 °F 60 °F  
Max Temperature 66 °F 72 °F 91 °F (1929)
Min Temperature 46 °F 48 °F 30 °F (1968)
Degree Days  
Heating Degree Days 9 7  
Month to date heating degree days 269 205  
Since 1 July heating degree days 2380 2087  
Cooling Degree Days 0 1  
Month to date cooling degree days 5 21  
Year to date cooling degree days 11 31  
Growing Degree Days 4 (Base 50)    
Moisture  
Dew Point 44 °F    
Average Humidity 64    
Maximum Humidity 83    
Minimum Humidity 44    
Precipitation  
Precipitation 0.26 in 0.13 in 1.92 in (1874)
Month to date precipitation 1.88 3.04  
Year to date precipitation 5.32 11.99  
Snow  
Snow 0.00 in - - ()
Month to date snowfall T  
Since 1 July snowfall 1.0  
Snow Depth 0.00 in    
Sea Level Pressure  
Sea Level Pressure 30.17 in    
Wind  
Wind Speed 13 mph (NE)    
Max Wind Speed 24 mph    
Max Gust Speed 32 mph    
Visibility 9 miles    
Events Rain , Thunderstorm    
T = Trace of Precipitation, MM = Missing Value Source: NWS Daily Summary

Daily Weather History Graph

Daily Weather History Graph

Search for Another Location

Airport:

Trip Planner

Search our weather history database for the weather conditions in past years. The results will help you decide how hot, cold, wet, or windy it might be!

Date:

Astronomy

Mar. 23, 2014 Rise Set
Actual Time 7:15 AM CDT 7:28 PM CDT
Civil Twilight 6:50 AM CDT 7:53 PM CDT
Nautical Twilight 6:21 AM CDT 8:22 PM CDT
Astronomical Twilight 5:52 AM CDT 8:51 PM CDT
Moon 1:30 AM CDT (3/23) 12:13 PM CDT (3/23)
Length of Visible Light 13h 02m
Length of Day
12h 13m
Waning Gibbous, 54% of the Moon is Illuminated
Mar 23
Waning Gibbous
Mar 23
Last Quarter
Mar 30
New
Apr 7
First Quarter
Apr 15
Full

Hourly Weather History & Observations

Time (CDT) Temp. Dew Point Humidity Pressure Visibility Wind Dir Wind Speed Gust Speed Precip Events Conditions
12:29 AM 66.2 °F 57.2 °F 73% 30.00 in 8.0 mi ENE 4.6 mph - N/A Thunderstorm Thunderstorm
12:56 AM 66.0 °F 57.9 °F 75% 29.99 in 8.0 mi NE 6.9 mph - N/A   Overcast
1:56 AM 63.0 °F 59.0 °F 87% 30.02 in 3.0 mi North 11.5 mph - 0.07 in Rain , Thunderstorm Thunderstorms and Rain
2:04 AM 60.8 °F 59.0 °F 94% 30.03 in 1.8 mi North 8.1 mph - 0.07 in Rain , Thunderstorm Heavy Thunderstorms and Rain
2:13 AM 60.8 °F 59.0 °F 94% 30.03 in 3.0 mi NE 4.6 mph - 0.18 in Rain , Thunderstorm Light Thunderstorms and Rain
2:24 AM 60.8 °F 57.2 °F 88% 30.03 in 8.0 mi North 11.5 mph - 0.18 in   Overcast
2:37 AM 60.8 °F 53.6 °F 77% 30.03 in 10.0 mi North 15.0 mph 21.9 mph 0.18 in   Overcast
2:56 AM 57.9 °F 52.0 °F 81% 30.04 in 10.0 mi NNE 12.7 mph - 0.18 in   Overcast
3:56 AM 55.0 °F 48.9 °F 80% 30.05 in 10.0 mi NNE 12.7 mph 23.0 mph 0.00 in   Overcast
4:40 AM 53.6 °F 48.2 °F 82% 30.07 in 10.0 mi NNE 15.0 mph - N/A   Overcast
4:56 AM 53.1 °F 48.0 °F 83% 30.09 in 10.0 mi NNE 17.3 mph 23.0 mph N/A   Overcast
5:45 AM 51.8 °F 46.4 °F 82% 30.13 in 10.0 mi NNE 17.3 mph 27.6 mph N/A   Overcast
5:56 AM 51.1 °F 45.0 °F 80% 30.14 in 10.0 mi NNE 18.4 mph 26.5 mph N/A   Overcast
6:56 AM 50.0 °F 43.0 °F 77% 30.19 in 10.0 mi NNE 18.4 mph 24.2 mph 0.00 in   Overcast
7:56 AM 48.9 °F 42.1 °F 77% 30.23 in 10.0 mi NNE 20.7 mph 29.9 mph 0.00 in   Overcast
8:38 AM 48.2 °F 41.0 °F 76% 30.24 in 10.0 mi NE 18.4 mph 26.5 mph N/A   Overcast
8:56 AM 48.9 °F 39.9 °F 71% 30.25 in 10.0 mi NE 16.1 mph 25.3 mph N/A   Overcast
9:56 AM 50.0 °F 39.9 °F 68% 30.27 in 10.0 mi NNE 13.8 mph 21.9 mph N/A   Overcast
10:56 AM 51.1 °F 39.9 °F 66% 30.29 in 10.0 mi NNE 11.5 mph - N/A   Overcast
11:23 AM 51.8 °F 41.0 °F 67% 30.30 in 10.0 mi NNE 12.7 mph - N/A   Overcast
11:47 AM 51.8 °F 39.2 °F 62% 30.29 in 10.0 mi NNE 16.1 mph 21.9 mph N/A   Overcast
11:56 AM 51.1 °F 39.9 °F 66% 30.29 in 10.0 mi NE 12.7 mph - N/A   Overcast
12:56 PM 55.0 °F 41.0 °F 59% 30.26 in 10.0 mi NE 15.0 mph 24.2 mph N/A   Overcast
1:56 PM 59.0 °F 39.9 °F 49% 30.24 in 10.0 mi NNE 16.1 mph 24.2 mph N/A   Overcast
2:56 PM 59.0 °F 37.9 °F 46% 30.19 in 10.0 mi NNE 17.3 mph - N/A   Overcast
3:56 PM 57.9 °F 37.9 °F 47% 30.25 in 10.0 mi NNE 8.1 mph - N/A   Overcast
4:56 PM 57.9 °F 37.9 °F 47% 30.20 in 10.0 mi NNE 12.7 mph - N/A   Overcast
5:56 PM 57.0 °F 39.0 °F 51% 30.19 in 10.0 mi NE 10.4 mph - 0.00 in   Overcast
6:56 PM 55.0 °F 39.0 °F 55% 30.16 in 10.0 mi NE 16.1 mph - 0.01 in   Mostly Cloudy
7:56 PM 55.0 °F 35.1 °F 47% 30.18 in 10.0 mi NE 11.5 mph - N/A   Mostly Cloudy
8:56 PM 53.1 °F 35.1 °F 50% 30.23 in 10.0 mi East 9.2 mph - N/A   Mostly Cloudy
9:56 PM 50.0 °F 35.1 °F 57% 30.25 in 10.0 mi East 5.8 mph - N/A   Mostly Cloudy
10:56 PM 48.0 °F 34.0 °F 58% 30.27 in 10.0 mi East 6.9 mph - N/A   Mostly Cloudy
11:56 PM 46.9 °F 34.0 °F 61% 30.26 in 10.0 mi East 6.9 mph - N/A   Scattered Clouds